| time (UTC) | temp C | wind direction | speed KPH | gust KPH | rain 1hr cm | rain 24hr cm | rain mn cm | humidity % | barometer mb |
| 20260502164050 | 19 | 360 | 3.2 | 0.0 | 0.00 | 0.00 | 0.00 | 65 | 1024.3 |
| 20260502163520 | 18 | 76 | 3.2 | 0.0 | 0.00 | 0.00 | 0.00 | 64 | 1024.3 |
| 20260502163026 | 18 | 340 | 4.8 | 0.0 | 0.00 | 0.00 | 0.00 | 64 | 1024.3 |
| 20260502162605 | 18 | 319 | 4.8 | 0.0 | 0.00 | 0.00 | 0.00 | 63 | 1024.3 |
| 20260502162036 | 18 | 360 | 3.2 | 0.0 | 0.00 | 0.00 | 0.00 | 65 | 1024.4 |
| 20260502161536 | 18 | 348 | 3.2 | 0.0 | 0.00 | 0.00 | 0.00 | 64 | 1024.5 |
| 20260502161010 | 18 | 291 | 3.2 | 0.0 | 0.00 | 0.00 | 0.00 | 63 | 1024.5 |
| 20260502160547 | 18 | 74 | 1.6 | 0.0 | 0.00 | 0.00 | 0.00 | 65 | 1024.5 |
| 20260502152100 | 16 | 313 | 1.6 | 0.0 | 0.00 | 0.00 | 0.00 | 70 | 1024.3 |
| 20260502151605 | 16 | 313 | 1.6 | 0.0 | 0.00 | 0.00 | 0.00 | 70 | 1024.3 |
| 20260502151034 | 16 | 273 | 3.2 | 0.0 | 0.00 | 0.00 | 0.00 | 72 | 1024.3 |
| 20260502150507 | 16 | 273 | 3.2 | 0.0 | 0.00 | 0.00 | 0.00 | 74 | 1024.3 |
| 20260502150112 | 16 | 273 | 3.2 | 0.0 | 0.00 | 0.00 | 0.00 | 76 | 1024.3 |
| 20260502130503 | 10 | 18 | 3.2 | 0.0 | 0.00 | 0.00 | 0.00 | 93 | 1023.2 |
| 20260502130108 | 10 | 18 | 3.2 | 0.0 | 0.00 | 0.00 | 0.00 | 93 | 1023.2 |
| 20260502123519 | 8 | 18 | 0.0 | 0.0 | 0.00 | 0.00 | 0.00 | 93 | 1022.9 |
| 20260502123027 | 8 | 18 | 0.0 | 0.0 | 0.00 | 0.00 | 0.00 | 93 | 1022.8 |
| 20260502122601 | 8 | 18 | 0.0 | 0.0 | 0.00 | 0.00 | 0.00 | 93 | 1022.7 |
| 20260502122033 | 8 | 18 | 0.0 | 0.0 | 0.00 | 0.00 | 0.00 | 93 | 1022.7 |
| 20260502121538 | 8 | 18 | 0.0 | 0.0 | 0.00 | 0.00 | 0.00 | 93 | 1022.6 |
| 20260502121013 | 8 | 18 | 0.0 | 0.0 | 0.00 | 0.00 | 0.00 | 93 | 1022.5 |
| 20260502120550 | 8 | 18 | 0.0 | 0.0 | 0.00 | 0.00 | 0.00 | 93 | 1022.4 |
| 20260502115522 | 8 | 18 | 0.0 | 0.0 | 0.00 | 0.00 | 0.00 | 93 | 1022.1 |
| 20260502115101 | 8 | 18 | 0.0 | 0.0 | 0.00 | 0.00 | 0.00 | 93 | 1022.0 |
| 20260502114604 | 8 | 18 | 0.0 | 0.0 | 0.00 | 0.00 | 0.00 | 93 | 1021.8 |
| 20260502114032 | 8 | 18 | 0.0 | 0.0 | 0.00 | 0.00 | 0.00 | 93 | 1021.7 |
| 20260502113505 | 8 | 18 | 0.0 | 0.0 | 0.00 | 0.00 | 0.00 | 93 | 1021.7 |
| 20260502113056 | 8 | 18 | 1.6 | 0.0 | 0.00 | 0.00 | 0.00 | 93 | 1021.7 |
| 20260502112532 | 8 | 18 | 0.0 | 0.0 | 0.00 | 0.00 | 0.00 | 93 | 1021.7 |
| 20260502112001 | 8 | 18 | 0.0 | 0.0 | 0.00 | 0.00 | 0.00 | 93 | 1021.6 |
| 20260502111556 | 8 | 18 | 0.0 | 0.0 | 0.00 | 0.00 | 0.00 | 93 | 1021.6 |
| 20260502111030 | 8 | 18 | 0.0 | 0.0 | 0.00 | 0.00 | 0.00 | 93 | 1021.5 |
| 20260502110506 | 8 | 18 | 0.0 | 0.0 | 0.00 | 0.00 | 0.00 | 93 | 1021.3 |
| 20260502110058 | 8 | 18 | 1.6 | 0.0 | 0.00 | 0.00 | 0.00 | 93 | 1021.2 |
| 20260502105534 | 8 | 18 | 0.0 | 0.0 | 0.00 | 0.00 | 0.00 | 93 | 1021.1 |
| 20260502105006 | 8 | 18 | 0.0 | 0.0 | 0.00 | 0.00 | 0.00 | 93 | 1020.9 |
| 20260502104559 | 8 | 18 | 0.0 | 0.0 | 0.00 | 0.00 | 0.00 | 93 | 1020.8 |
| 20260502104033 | 8 | 18 | 0.0 | 0.0 | 0.00 | 0.00 | 0.00 | 93 | 1020.5 |
| 20260502103501 | 8 | 18 | 0.0 | 0.0 | 0.00 | 0.00 | 0.00 | 93 | 1020.4 |
| 20260502103006 | 8 | 18 | 0.0 | 0.0 | 0.00 | 0.00 | 0.00 | 93 | 1020.3 |
| 20260502102543 | 8 | 18 | 0.0 | 0.0 | 0.00 | 0.00 | 0.00 | 93 | 1020.3 |
| 20260502102015 | 8 | 18 | 0.0 | 0.0 | 0.00 | 0.00 | 0.00 | 93 | 1020.4 |
| 20260502101517 | 8 | 18 | 0.0 | 0.0 | 0.00 | 0.00 | 0.00 | 93 | 1020.4 |
| 20260502101055 | 8 | 18 | 1.6 | 0.0 | 0.00 | 0.00 | 0.00 | 93 | 1020.3 |
| 20260502100532 | 8 | 18 | 0.0 | 0.0 | 0.00 | 0.00 | 0.00 | 93 | 1020.3 |
| 20260502091511 | 8 | 18 | 1.6 | 0.0 | 0.00 | 0.00 | 0.00 | 93 | 1020.3 |
| 20260502091052 | 8 | 18 | 1.6 | 0.0 | 0.00 | 0.00 | 0.00 | 93 | 1020.3 |
| 20260502090522 | 9 | 18 | 1.6 | 0.0 | 0.00 | 0.00 | 0.00 | 93 | 1020.2 |
| 20260502071028 | 10 | 18 | 1.6 | 0.0 | 0.00 | 0.00 | 0.00 | 93 | 1019.9 |
| 20260502070604 | 10 | 18 | 1.6 | 0.0 | 0.00 | 0.00 | 0.00 | 93 | 1019.9 |
| 20260502070003 | 10 | 18 | 1.6 | 0.0 | 0.00 | 0.00 | 0.00 | 93 | 1019.9 |
| 20260502065541 | 10 | 18 | 1.6 | 0.0 | 0.00 | 0.00 | 0.00 | 93 | 1020.0 |
| 20260502065018 | 10 | 18 | 1.6 | 0.0 | 0.00 | 0.00 | 0.00 | 93 | 1020.0 |
| 20260502064520 | 10 | 18 | 1.6 | 0.0 | 0.00 | 0.00 | 0.00 | 93 | 1019.8 |
| 20260502064053 | 10 | 18 | 1.6 | 0.0 | 0.00 | 0.00 | 0.00 | 93 | 1019.8 |
| 20260502063530 | 10 | 18 | 1.6 | 0.0 | 0.00 | 0.00 | 0.00 | 93 | 1019.8 |
| 20260502063044 | 10 | 18 | 0.0 | 0.0 | 0.00 | 0.00 | 0.00 | 93 | 1019.8 |
| 20260502062509 | 10 | 18 | 0.0 | 0.0 | 0.00 | 0.00 | 0.00 | 93 | 1019.8 |
| 20260502062041 | 10 | 18 | 0.0 | 0.0 | 0.00 | 0.00 | 0.00 | 93 | 1019.8 |
| 20260502061550 | 10 | 18 | 0.0 | 0.0 | 0.00 | 0.00 | 0.00 | 93 | 1019.8 |
| 20260502061018 | 10 | 18 | 0.0 | 0.0 | 0.00 | 0.00 | 0.00 | 93 | 1019.6 |
| 20260502060554 | 10 | 18 | 0.0 | 0.0 | 0.00 | 0.00 | 0.00 | 93 | 1019.6 |
| 20260502060100 | 10 | 18 | 0.0 | 0.0 | 0.00 | 0.00 | 0.00 | 93 | 1019.6 |
| 20260502055530 | 10 | 18 | 0.0 | 0.0 | 0.00 | 0.00 | 0.00 | 93 | 1019.7 |
| 20260502055002 | 10 | 18 | 0.0 | 0.0 | 0.00 | 0.00 | 0.00 | 93 | 1019.8 |
| 20260502054601 | 10 | 18 | 1.6 | 0.0 | 0.00 | 0.00 | 0.00 | 93 | 1019.7 |
| 20260502054029 | 11 | 18 | 1.6 | 0.0 | 0.00 | 0.00 | 0.00 | 93 | 1019.9 |
| 20260502053506 | 11 | 18 | 1.6 | 0.0 | 0.00 | 0.00 | 0.00 | 93 | 1019.9 |
| 20260502053103 | 11 | 18 | 1.6 | 0.0 | 0.00 | 0.00 | 0.00 | 93 | 1019.9 |
| 20260502052525 | 11 | 18 | 1.6 | 0.0 | 0.00 | 0.00 | 0.00 | 93 | 1019.8 |
| 20260502052003 | 11 | 18 | 1.6 | 0.0 | 0.00 | 0.00 | 0.00 | 93 | 1019.8 |
| 20260502051505 | 11 | 18 | 0.0 | 0.0 | 0.00 | 0.00 | 0.00 | 93 | 1019.8 |
| 20260502051044 | 11 | 18 | 0.0 | 0.0 | 0.00 | 0.00 | 0.00 | 93 | 1019.7 |
| 20260502050520 | 11 | 18 | 0.0 | 0.0 | 0.00 | 0.00 | 2.72 | 93 | 1019.6 |
| 20260502050002 | 11 | 18 | 0.0 | 0.0 | 0.00 | 0.00 | 2.72 | 93 | 1019.5 |
| 20260502045541 | 11 | 18 | 0.0 | 0.0 | 0.00 | 0.00 | 2.72 | 93 | 1019.4 |
| 20260502045016 | 11 | 18 | 0.0 | 0.0 | 0.00 | 0.00 | 2.72 | 93 | 1019.4 |
| 20260502044613 | 11 | 18 | 0.0 | 0.0 | 0.00 | 0.00 | 2.72 | 93 | 1019.5 |
| 20260502044035 | 11 | 18 | 0.0 | 0.0 | 0.00 | 0.00 | 2.72 | 93 | 1019.5 |
| 20260502043514 | 11 | 18 | 0.0 | 0.0 | 0.00 | 0.00 | 2.72 | 93 | 1019.5 |
| 20260502043103 | 11 | 18 | 0.0 | 0.0 | 0.00 | 0.00 | 2.72 | 93 | 1019.4 |
| 20260502042534 | 11 | 18 | 0.0 | 0.0 | 0.00 | 0.00 | 2.72 | 93 | 1019.3 |
| 20260502042010 | 11 | 18 | 0.0 | 0.0 | 0.00 | 0.00 | 2.72 | 93 | 1019.3 |
| 20260502041518 | 12 | 18 | 0.0 | 0.0 | 0.00 | 0.00 | 2.72 | 93 | 1019.3 |
| 20260502041054 | 12 | 18 | 1.6 | 0.0 | 0.00 | 0.00 | 2.72 | 93 | 1019.3 |
| 20260502040523 | 12 | 18 | 1.6 | 0.0 | 0.00 | 0.00 | 2.72 | 93 | 1019.4 |
| 20260502040028 | 12 | 18 | 1.6 | 0.0 | 0.00 | 0.00 | 2.72 | 93 | 1019.3 |
| 20260502035605 | 12 | 18 | 0.0 | 0.0 | 0.00 | 0.00 | 2.72 | 93 | 1019.4 |
| 20260502035034 | 12 | 18 | 0.0 | 0.0 | 0.00 | 0.00 | 2.72 | 93 | 1019.3 |
| 20260502034540 | 12 | 18 | 1.6 | 0.0 | 0.00 | 0.00 | 2.72 | 93 | 1019.5 |
| 20260502034009 | 12 | 18 | 0.0 | 0.0 | 0.00 | 0.00 | 2.72 | 93 | 1019.4 |
| 20260502033547 | 12 | 18 | 1.6 | 0.0 | 0.00 | 0.00 | 2.72 | 93 | 1019.3 |
| 20260502033032 | 12 | 18 | 1.6 | 0.0 | 0.00 | 0.00 | 2.72 | 93 | 1019.3 |
| 20260502032506 | 12 | 18 | 1.6 | 0.0 | 0.00 | 0.00 | 2.72 | 93 | 1019.4 |
| 20260502032046 | 12 | 18 | 0.0 | 0.0 | 0.00 | 0.00 | 2.72 | 93 | 1019.4 |
| 20260502031532 | 12 | 18 | 1.6 | 0.0 | 0.00 | 0.00 | 2.72 | 93 | 1019.3 |
| 20260502031002 | 12 | 18 | 1.6 | 0.0 | 0.00 | 0.00 | 2.72 | 93 | 1019.2 |
| 20260502030543 | 12 | 18 | 1.6 | 0.0 | 0.00 | 0.00 | 2.72 | 93 | 1019.2 |
| 20260502030050 | 12 | 18 | 1.6 | 0.0 | 0.00 | 0.00 | 2.72 | 93 | 1019.2 |
| 20260502025520 | 12 | 18 | 1.6 | 0.0 | 0.00 | 0.00 | 2.72 | 93 | 1019.1 |
| 20260502025103 | 12 | 18 | 1.6 | 0.0 | 0.00 | 0.00 | 2.72 | 93 | 1019.0 |
| 20260502024509 | 12 | 18 | 0.0 | 0.0 | 0.00 | 0.00 | 2.72 | 93 | 1018.9 |
| 20260502024045 | 12 | 18 | 0.0 | 0.0 | 0.00 | 0.00 | 2.72 | 93 | 1018.8 |
| 20260502023515 | 12 | 18 | 0.0 | 0.0 | 0.00 | 0.00 | 2.72 | 93 | 1018.8 |
| 20260502023024 | 12 | 18 | 0.0 | 0.0 | 0.00 | 0.00 | 2.72 | 93 | 1018.8 |
| 20260502022556 | 12 | 18 | 1.6 | 0.0 | 0.00 | 0.00 | 2.72 | 93 | 1018.7 |
| 20260502022029 | 12 | 18 | 1.6 | 0.0 | 0.00 | 0.00 | 2.72 | 93 | 1018.7 |
| 20260502021533 | 12 | 18 | 0.0 | 0.0 | 0.00 | 0.00 | 2.72 | 93 | 1018.5 |
| 20260502021006 | 12 | 47 | 0.0 | 0.0 | 0.00 | 0.00 | 2.72 | 93 | 1018.4 |
| 20260502020542 | 12 | 71 | 0.0 | 0.0 | 0.00 | 0.00 | 2.72 | 93 | 1018.2 |
| 20260502020048 | 12 | 71 | 0.0 | 0.0 | 0.00 | 0.00 | 2.72 | 93 | 1018.0 |
| 20260502015522 | 12 | 71 | 0.0 | 0.0 | 0.00 | 0.00 | 2.72 | 93 | 1017.8 |
| 20260502015058 | 12 | 71 | 0.0 | 0.0 | 0.00 | 0.00 | 2.72 | 93 | 1017.8 |
| 20260502014544 | 12 | 71 | 0.0 | 0.0 | 0.00 | 0.00 | 2.72 | 93 | 1017.7 |
| 20260502014021 | 12 | 71 | 0.0 | 0.0 | 0.00 | 0.00 | 2.72 | 93 | 1017.6 |
| 20260502013556 | 12 | 71 | 0.0 | 0.0 | 0.00 | 0.00 | 2.72 | 93 | 1017.6 |
| 20260502013046 | 12 | 71 | 0.0 | 0.0 | 0.00 | 0.00 | 2.72 | 93 | 1017.5 |
| 20260502012521 | 12 | 71 | 1.6 | 0.0 | 0.00 | 0.00 | 2.72 | 93 | 1017.5 |
| 20260502012058 | 12 | 72 | 1.6 | 0.0 | 0.00 | 0.00 | 2.72 | 93 | 1017.5 |
| 20260502011547 | 12 | 70 | 1.6 | 0.0 | 0.00 | 0.00 | 2.72 | 93 | 1017.3 |
| 20260502011020 | 12 | 71 | 1.6 | 0.0 | 0.00 | 0.00 | 2.72 | 93 | 1017.3 |
| 20260502010601 | 12 | 71 | 1.6 | 0.0 | 0.00 | 0.00 | 2.72 | 93 | 1017.2 |
| 20260502010051 | 12 | 46 | 1.6 | 0.0 | 0.00 | 0.00 | 2.72 | 93 | 1017.2 |
| 20260502005518 | 12 | 351 | 1.6 | 0.0 | 0.00 | 0.00 | 2.72 | 93 | 1017.0 |
| 20260502005100 | 12 | 24 | 1.6 | 0.0 | 0.00 | 0.00 | 2.72 | 93 | 1016.9 |
| 20260502004604 | 12 | 24 | 1.6 | 0.0 | 0.00 | 0.00 | 2.72 | 93 | 1016.8 |
| 20260502004031 | 12 | 351 | 1.6 | 0.0 | 0.00 | 0.00 | 2.72 | 93 | 1016.6 |
| 20260502003606 | 12 | 335 | 1.6 | 0.0 | 0.00 | 0.00 | 2.72 | 93 | 1016.6 |
| 20260502003056 | 12 | 15 | 1.6 | 0.0 | 0.00 | 0.00 | 2.72 | 93 | 1016.6 |
| 20260502002529 | 12 | 55 | 1.6 | 0.0 | 0.00 | 0.00 | 2.72 | 93 | 1016.5 |
| 20260502002002 | 12 | 61 | 1.6 | 0.0 | 0.00 | 0.00 | 2.72 | 93 | 1016.5 |
| 20260502001508 | 12 | 269 | 3.2 | 0.0 | 0.00 | 0.00 | 2.72 | 93 | 1016.3 |
| 20260502001040 | 12 | 82 | 3.2 | 0.0 | 0.00 | 0.00 | 2.72 | 93 | 1016.2 |
| 20260502000512 | 12 | 63 | 1.6 | 0.0 | 0.00 | 0.00 | 2.72 | 93 | 1016.2 |
| 20260502000017 | 12 | 69 | 3.2 | 0.0 | 0.00 | 0.00 | 2.72 | 93 | 1016.2 |
| 20260501235553 | 12 | 71 | 1.6 | 0.0 | 0.00 | 0.00 | 2.72 | 93 | 1016.1 |
| 20260501235026 | 12 | 323 | 1.6 | 0.0 | 0.00 | 0.00 | 2.72 | 93 | 1016.2 |
| 20260501234535 | 12 | 323 | 3.2 | 0.0 | 0.00 | 0.00 | 2.72 | 93 | 1016.2 |
| 20260501234104 | 12 | 323 | 3.2 | 0.0 | 0.00 | 0.00 | 2.72 | 93 | 1016.2 |
| 20260501233534 | 12 | 360 | 3.2 | 0.0 | 0.00 | 0.00 | 2.72 | 93 | 1016.2 |
| 20260501233044 | 12 | 21 | 3.2 | 0.0 | 0.00 | 0.00 | 2.72 | 93 | 1016.3 |
| 20260501232527 | 12 | 25 | 3.2 | 0.0 | 0.00 | 0.00 | 2.72 | 93 | 1016.2 |
| 20260501232105 | 12 | 338 | 4.8 | 0.0 | 0.00 | 0.00 | 2.72 | 93 | 1015.9 |
| 20260501231502 | 12 | 5 | 4.8 | 0.0 | 0.00 | 0.00 | 2.72 | 93 | 1015.6 |
| 20260501231040 | 12 | 326 | 3.2 | 0.0 | 0.00 | 0.00 | 2.72 | 93 | 1015.5 |
| 20260501230514 | 12 | 349 | 4.8 | 0.0 | 0.00 | 0.00 | 2.72 | 93 | 1015.5 |
| 20260501230016 | 12 | 38 | 3.2 | 0.0 | 0.00 | 0.00 | 2.69 | 93 | 1015.6 |
| 20260501225555 | 12 | 314 | 4.8 | 0.0 | 0.00 | 0.00 | 2.69 | 93 | 1015.5 |
| 20260501225033 | 12 | 360 | 4.8 | 0.0 | 0.00 | 0.00 | 2.69 | 93 | 1015.6 |
| 20260501224544 | 12 | 360 | 3.2 | 0.0 | 0.00 | 0.00 | 2.69 | 93 | 1015.4 |
| 20260501224011 | 12 | 52 | 3.2 | 0.0 | 0.00 | 0.00 | 2.69 | 93 | 1015.4 |
| 20260501223548 | 12 | 86 | 3.2 | 0.0 | 0.00 | 0.00 | 2.69 | 93 | 1015.5 |
| 20260501223053 | 12 | 338 | 3.2 | 0.0 | 0.00 | 0.00 | 2.67 | 93 | 1015.4 |
| 20260501222529 | 12 | 336 | 3.2 | 0.0 | 0.00 | 0.00 | 2.67 | 93 | 1015.7 |
| 20260501222104 | 12 | 336 | 3.2 | 0.0 | 0.00 | 0.00 | 2.64 | 93 | 1015.8 |
| 20260501221504 | 12 | 333 | 4.8 | 0.0 | 0.00 | 0.00 | 2.64 | 93 | 1015.8 |
| 20260501221041 | 12 | 348 | 4.8 | 0.0 | 0.00 | 0.00 | 2.62 | 93 | 1016.0 |
| 20260501220513 | 12 | 350 | 4.8 | 0.0 | 0.00 | 0.00 | 2.59 | 93 | 1015.9 |
| 20260501220016 | 12 | 346 | 6.4 | 0.0 | 0.00 | 0.00 | 2.57 | 93 | 1015.7 |
| 20260501215555 | 12 | 355 | 4.8 | 0.0 | 0.00 | 0.00 | 2.54 | 93 | 1015.6 |
| 20260501215028 | 12 | 336 | 4.8 | 0.0 | 0.00 | 0.00 | 2.49 | 93 | 1015.5 |
| 20260501214536 | 12 | 348 | 4.8 | 0.0 | 0.00 | 0.00 | 2.46 | 93 | 1015.4 |
| 20260501214008 | 12 | 355 | 4.8 | 0.0 | 0.00 | 0.00 | 2.44 | 93 | 1015.2 |
| 20260501213547 | 12 | 360 | 4.8 | 0.0 | 0.00 | 0.00 | 2.44 | 93 | 1015.0 |
| 20260501213055 | 12 | 348 | 6.4 | 0.0 | 0.00 | 0.00 | 2.44 | 93 | 1014.8 |
| 20260501212529 | 12 | 355 | 6.4 | 0.0 | 0.00 | 0.00 | 2.44 | 93 | 1014.7 |
| 20260501212106 | 12 | 340 | 4.8 | 0.0 | 0.00 | 0.00 | 2.44 | 93 | 1014.5 |
| 20260501211504 | 13 | 355 | 3.2 | 0.0 | 0.00 | 0.00 | 2.44 | 93 | 1014.4 |
| 20260501211039 | 13 | 9 | 4.8 | 0.0 | 0.00 | 0.00 | 2.44 | 93 | 1014.0 |
| 20260501210512 | 13 | 351 | 4.8 | 0.0 | 0.00 | 0.00 | 2.44 | 93 | 1013.7 |
| 20260501210022 | 13 | 294 | 4.8 | 0.0 | 0.00 | 0.00 | 2.44 | 93 | 1013.6 |
| 20260501205559 | 13 | 355 | 6.4 | 0.0 | 0.00 | 0.00 | 2.44 | 93 | 1013.5 |
| 20260501205032 | 13 | 360 | 6.4 | 0.0 | 0.00 | 0.00 | 2.44 | 93 | 1013.5 |
| 20260501204655 | 13 | 360 | 6.4 | 0.0 | 0.00 | 0.00 | 2.44 | 93 | 1013.5 |
| 20260501203515 | 13 | 331 | 6.4 | 0.0 | 0.00 | 0.00 | 2.44 | 93 | 1013.2 |
| 20260501203005 | 13 | 327 | 4.8 | 0.0 | 0.00 | 0.00 | 2.44 | 93 | 1013.2 |
| 20260501202543 | 13 | 335 | 4.8 | 0.0 | 0.00 | 0.00 | 2.44 | 93 | 1013.2 |
| 20260501202019 | 13 | 355 | 4.8 | 0.0 | 0.00 | 0.00 | 2.44 | 93 | 1013.2 |
| 20260501201512 | 13 | 355 | 3.2 | 0.0 | 0.00 | 0.00 | 2.41 | 93 | 1013.4 |
| 20260501201050 | 13 | 360 | 3.2 | 0.0 | 0.00 | 0.00 | 2.41 | 93 | 1013.5 |
| 20260501200523 | 13 | 331 | 4.8 | 0.0 | 0.00 | 0.00 | 2.39 | 93 | 1013.2 |
| 20260501200036 | 13 | 360 | 4.8 | 0.0 | 0.00 | 0.00 | 2.39 | 93 | 1013.1 |
| 20260501195512 | 13 | 335 | 4.8 | 0.0 | 0.00 | 0.00 | 2.39 | 93 | 1013.8 |
| 20260501195051 | 13 | 342 | 3.2 | 0.0 | 0.00 | 0.00 | 2.39 | 93 | 1013.7 |
| 20260501194501 | 13 | 130 | 4.8 | 0.0 | 0.00 | 0.00 | 2.36 | 93 | 1013.2 |
| 20260501194040 | 13 | 355 | 4.8 | 0.0 | 0.00 | 0.00 | 2.34 | 93 | 1013.9 |
| 20260501193513 | 13 | 328 | 3.2 | 0.0 | 0.00 | 0.00 | 2.31 | 93 | 1014.0 |
| 20260501193018 | 13 | 315 | 4.8 | 0.0 | 0.00 | 0.00 | 2.31 | 93 | 1013.8 |
| 20260501192546 | 13 | 5 | 4.8 | 0.0 | 0.00 | 0.00 | 2.29 | 93 | 1013.9 |
| 20260501192016 | 14 | 342 | 3.2 | 0.0 | 0.00 | 0.00 | 2.29 | 93 | 1014.0 |
| 20260501191510 | 14 | 16 | 4.8 | 0.0 | 0.00 | 0.00 | 2.29 | 93 | 1013.5 |
| 20260501191052 | 14 | 78 | 4.8 | 0.0 | 0.00 | 0.00 | 2.29 | 92 | 1013.4 |
| 20260501190522 | 15 | 321 | 4.8 | 0.0 | 0.00 | 0.00 | 2.29 | 92 | 1013.1 |
| 20260501190033 | 14 | 104 | 4.8 | 0.0 | 0.00 | 0.00 | 2.29 | 92 | 1012.8 |
| 20260501185505 | 14 | 23 | 4.8 | 0.0 | 0.00 | 0.00 | 2.29 | 92 | 1013.3 |
| 20260501185044 | 14 | 351 | 4.8 | 0.0 | 0.00 | 0.00 | 2.29 | 92 | 1013.4 |
| 20260501184601 | 14 | 9 | 3.2 | 0.0 | 0.00 | 0.00 | 2.29 | 92 | 1013.5 |
| 20260501184035 | 13 | 351 | 3.2 | 0.0 | 0.00 | 0.00 | 2.29 | 92 | 1013.8 |
| 20260501183509 | 13 | 338 | 3.2 | 0.0 | 0.00 | 0.00 | 2.24 | 92 | 1014.6 |
| 20260501183019 | 13 | 329 | 3.2 | 0.0 | 0.00 | 0.00 | 2.16 | 92 | 1015.1 |
| 20260501182558 | 13 | 329 | 3.2 | 0.0 | 0.00 | 0.00 | 2.11 | 93 | 1015.4 |
| 20260501182033 | 13 | 324 | 4.8 | 0.0 | 0.00 | 0.00 | 2.06 | 93 | 1016.2 |
| 20260501181531 | 13 | 331 | 4.8 | 0.0 | 0.00 | 0.00 | 2.01 | 93 | 1016.9 |
| 20260501181003 | 13 | 333 | 4.8 | 0.0 | 0.00 | 0.00 | 1.88 | 93 | 1016.9 |
| 20260501180539 | 13 | 286 | 4.8 | 0.0 | 0.00 | 0.00 | 1.80 | 93 | 1016.6 |
| 20260501180051 | 13 | 360 | 4.8 | 0.0 | 0.00 | 0.00 | 1.80 | 93 | 1016.3 |
| 20260501175522 | 13 | 346 | 3.2 | 0.0 | 0.00 | 0.00 | 1.80 | 93 | 1015.1 |
| 20260501175059 | 13 | 350 | 3.2 | 0.0 | 0.00 | 0.00 | 1.80 | 93 | 1014.6 |